PBD1488 ULMM-ULMM

Flight info

Callsign PBD1488
Flight time 1h 2m
Altitude 9000
Route ASGOR1N ASGOR ASGOR1L
Aircraft B738/M-SDE2E3FGHIRWXY/LB1

Departure

Time 2026-05-07 15:14
Airport Emperor Nicholas II Murmansk Airport (ULMM)

Arrival

Time 2026-05-07 16:16
Airport Emperor Nicholas II Murmansk Airport (ULMM)
Time Latitude Longitude Altitude Speed Heading
2026-05-07 14:49 68.78377 32.75661 270 ft 0 kts 146°
2026-05-07 15:07 68.78378 32.75659 270 ft 3 kts 146°
2026-05-07 15:07 68.78400 32.75618 270 ft 4 kts 147°
2026-05-07 15:07 68.78413 32.75598 271 ft 2 kts 175°
2026-05-07 15:07 68.78424 32.75606 272 ft 2 kts 225°
2026-05-07 15:08 68.78431 32.75629 277 ft 2 kts 232°
2026-05-07 15:08 68.78432 32.75632 277 ft 0 kts 232°
2026-05-07 15:09 68.78424 32.75605 272 ft 6 kts 232°
2026-05-07 15:10 68.78374 32.75429 272 ft 17 kts 232°
2026-05-07 15:10 68.78304 32.75091 272 ft 22 kts 253°
2026-05-07 15:10 68.78364 32.74851 271 ft 15 kts 320°
2026-05-07 15:10 68.78453 32.74689 269 ft 17 kts 326°
2026-05-07 15:11 68.78562 32.74486 268 ft 22 kts 332°
2026-05-07 15:11 68.78706 32.74225 270 ft 28 kts 326°
2026-05-07 15:11 68.78877 32.73909 266 ft 27 kts 326°
2026-05-07 15:11 68.79034 32.73631 266 ft 26 kts 329°
2026-05-07 15:12 68.79113 32.73477 266 ft 1 kts 260°
2026-05-07 15:12 68.79103 32.73481 266 ft 1 kts 144°
2026-05-07 15:12 68.79084 32.73524 267 ft 5 kts 141°
2026-05-07 15:12 68.79039 32.73609 266 ft 10 kts 146°
2026-05-07 15:13 68.78978 32.73721 266 ft 10 kts 146°
2026-05-07 15:13 68.78803 32.74043 268 ft 66 kts 146°
2026-05-07 15:13 68.78214 32.75128 271 ft 136 kts 146°
2026-05-07 15:13 68.77301 32.76797 594 ft 165 kts 147°
2026-05-07 15:14 68.76326 32.78425 1534 ft 169 kts 149°
2026-05-07 15:14 68.75293 32.80094 2258 ft 180 kts 146°
2026-05-07 15:14 68.74128 32.82072 2581 ft 211 kts 147°
2026-05-07 15:14 68.72810 32.84311 2873 ft 233 kts 147°
2026-05-07 15:15 68.71354 32.86795 3223 ft 256 kts 147°
2026-05-07 15:15 68.69841 32.89391 4067 ft 262 kts 147°
2026-05-07 15:15 68.68289 32.92069 4994 ft 266 kts 147°
2026-05-07 15:15 68.66723 32.94828 5909 ft 270 kts 147°
2026-05-07 15:16 68.65146 32.97694 6788 ft 273 kts 147°
2026-05-07 15:16 68.63563 33.00626 7652 ft 276 kts 147°
2026-05-07 15:16 68.61953 33.03638 7544 ft 282 kts 147°
2026-05-07 15:16 68.60355 33.06640 7510 ft 274 kts 147°
2026-05-07 15:17 68.58718 33.09117 7476 ft 266 kts 166°
2026-05-07 15:17 68.56924 33.09345 7463 ft 257 kts 195°
2026-05-07 15:17 68.55404 33.07002 7462 ft 253 kts 229°
2026-05-07 15:17 68.54308 33.03243 7483 ft 255 kts 236°
2026-05-07 15:18 68.53285 32.99222 7470 ft 258 kts 240°
2026-05-07 15:18 68.52632 32.94696 7460 ft 255 kts 256°
2026-05-07 15:18 68.52226 32.90013 7454 ft 252 kts 260°
2026-05-07 15:18 68.51923 32.85312 7448 ft 251 kts 261°
2026-05-07 15:19 68.51892 32.80555 7181 ft 257 kts 287°
2026-05-07 15:19 68.52880 32.76613 7094 ft 255 kts 323°
2026-05-07 15:19 68.54455 32.74452 7071 ft 253 kts 335°
2026-05-07 15:19 68.56069 32.72553 7052 ft 253 kts 335°
2026-05-07 15:20 68.57685 32.70637 7052 ft 254 kts 335°
2026-05-07 15:20 68.59304 32.68693 7045 ft 254 kts 335°
2026-05-07 15:20 68.60917 32.66734 7043 ft 253 kts 334°
2026-05-07 15:20 68.62524 32.64765 7045 ft 253 kts 334°
2026-05-07 15:21 68.64130 32.62783 7049 ft 253 kts 334°
2026-05-07 15:21 68.65737 32.60793 7044 ft 253 kts 334°
2026-05-07 15:21 68.67319 32.58829 7052 ft 253 kts 334°
2026-05-07 15:21 68.68925 32.56827 7040 ft 254 kts 334°
2026-05-07 15:22 68.70544 32.54802 6753 ft 256 kts 334°
2026-05-07 15:22 68.72157 32.52783 6487 ft 254 kts 334°
2026-05-07 15:22 68.73723 32.50585 6202 ft 253 kts 327°
2026-05-07 15:22 68.75181 32.47900 5911 ft 251 kts 325°
2026-05-07 15:23 68.76611 32.45138 5637 ft 250 kts 325°
2026-05-07 15:23 68.78029 32.42416 5367 ft 249 kts 326°
2026-05-07 15:23 68.79452 32.39723 5103 ft 245 kts 326°
2026-05-07 15:23 68.80821 32.37146 4957 ft 229 kts 327°
2026-05-07 15:24 68.82096 32.34752 4816 ft 213 kts 327°
2026-05-07 15:24 68.83273 32.32543 4678 ft 196 kts 327°
2026-05-07 15:24 68.84371 32.30481 4410 ft 187 kts 327°
2026-05-07 15:24 68.85422 32.28508 4286 ft 180 kts 328°
2026-05-07 15:25 68.86605 32.27437 4181 ft 187 kts
2026-05-07 15:25 68.87787 32.28871 3986 ft 193 kts 47°
2026-05-07 15:25 68.88545 32.31928 3875 ft 192 kts 55°
2026-05-07 15:25 68.89281 32.34987 3774 ft 190 kts 55°
2026-05-07 15:26 68.90007 32.37993 3693 ft 183 kts 55°
2026-05-07 15:26 68.90700 32.40869 3510 ft 176 kts 55°
2026-05-07 15:26 68.91349 32.43615 3326 ft 170 kts 61°
2026-05-07 15:26 68.91453 32.46735 3121 ft 167 kts 113°
2026-05-07 15:27 68.90770 32.49244 2908 ft 161 kts 127°
2026-05-07 15:27 68.90116 32.51729 2679 ft 163 kts 127°
2026-05-07 15:27 68.89301 32.53809 2635 ft 154 kts 137°
2026-05-07 15:27 68.88498 32.55690 2303 ft 148 kts 137°
2026-05-07 15:28 68.87666 32.57433 2223 ft 150 kts 141°
2026-05-07 15:28 68.86810 32.59126 2172 ft 154 kts 142°
2026-05-07 15:28 68.85917 32.60821 1951 ft 155 kts 143°
2026-05-07 15:28 68.85035 32.62447 1757 ft 151 kts 144°
2026-05-07 15:29 68.84164 32.64062 1529 ft 150 kts 143°
2026-05-07 15:29 68.83302 32.65662 1314 ft 149 kts 144°
2026-05-07 15:29 68.82444 32.67263 1069 ft 149 kts 147°
2026-05-07 15:29 68.81583 32.68822 857 ft 148 kts 145°
2026-05-07 15:30 68.80728 32.70411 643 ft 147 kts 145°
2026-05-07 15:30 68.79913 32.72017 473 ft 143 kts 151°
2026-05-07 15:30 68.79092 32.73520 282 ft 141 kts 146°
2026-05-07 15:30 68.78248 32.75075 417 ft 158 kts 146°
2026-05-07 15:31 68.77262 32.76762 1101 ft 182 kts 148°
2026-05-07 15:31 68.76246 32.78649 1644 ft 177 kts 138°
2026-05-07 15:31 68.75182 32.80793 2194 ft 196 kts 146°
2026-05-07 15:31 68.74006 32.82742 2804 ft 198 kts 147°
2026-05-07 15:32 68.72825 32.84668 3464 ft 195 kts 148°
2026-05-07 15:32 68.71624 32.86605 3964 ft 201 kts 149°
2026-05-07 15:32 68.70433 32.88709 4541 ft 207 kts 143°
2026-05-07 15:32 68.69648 32.90265 4879 ft 212 kts 142°
2026-05-07 15:33 68.68290 32.91955 5329 ft 223 kts 177°
2026-05-07 15:33 68.66422 32.89871 5907 ft 233 kts 231°
2026-05-07 15:33 68.65826 32.87330 6210 ft 238 kts 243°
2026-05-07 15:33 68.64716 32.82066 6958 ft 242 kts 240°
2026-05-07 15:34 68.63853 32.78086 7025 ft 243 kts 247°
2026-05-07 15:34 68.63564 32.75082 7046 ft 241 kts 266°
2026-05-07 15:34 68.63811 32.70624 7048 ft 233 kts 293°
2026-05-07 15:34 68.64684 32.67144 7036 ft 213 kts 316°
2026-05-07 15:35 68.65825 32.64755 7042 ft 202 kts 324°
2026-05-07 15:35 68.66994 32.62619 7064 ft 203 kts 325°
2026-05-07 15:35 68.68186 32.60468 7060 ft 206 kts 325°
2026-05-07 15:35 68.69380 32.58301 7046 ft 206 kts 325°
2026-05-07 15:36 68.70572 32.56129 6967 ft 204 kts 325°
2026-05-07 15:36 68.71724 32.54019 6831 ft 193 kts 325°
2026-05-07 15:36 68.72811 32.52019 6682 ft 183 kts 325°
2026-05-07 15:36 68.73862 32.50080 6498 ft 181 kts 325°
2026-05-07 15:37 68.74897 32.48166 6342 ft 178 kts 325°
2026-05-07 15:37 68.75924 32.46258 5963 ft 188 kts 326°
2026-05-07 15:37 68.77015 32.44229 5617 ft 188 kts 326°
2026-05-07 15:37 68.78082 32.42244 5369 ft 181 kts 327°
2026-05-07 15:38 68.79104 32.40338 5157 ft 173 kts 327°
2026-05-07 15:38 68.80089 32.38500 5020 ft 168 kts 327°
2026-05-07 15:38 68.81090 32.36632 4937 ft 178 kts 327°
2026-05-07 15:38 68.82109 32.34726 4738 ft 174 kts 327°
2026-05-07 15:39 68.83091 32.32885 4539 ft 168 kts 327°
2026-05-07 15:39 68.84052 32.31082 4350 ft 166 kts 327°
2026-05-07 15:39 68.85001 32.29301 4175 ft 165 kts 328°
2026-05-07 15:39 68.85957 32.27568 3986 ft 163 kts 336°
2026-05-07 15:40 68.87035 32.27378 3838 ft 156 kts 21°
2026-05-07 15:40 68.87836 32.29255 3830 ft 153 kts 55°
2026-05-07 15:40 68.88440 32.31722 3746 ft 154 kts 54°
2026-05-07 15:40 68.89042 32.34147 3664 ft 151 kts 54°
2026-05-07 15:41 68.89631 32.36546 3608 ft 150 kts 54°
2026-05-07 15:41 68.90218 32.38952 3537 ft 151 kts 55°
2026-05-07 15:41 68.90808 32.41385 3482 ft 152 kts 55°
2026-05-07 15:41 68.91388 32.43875 3309 ft 154 kts 65°
2026-05-07 15:42 68.91524 32.46776 3174 ft 153 kts 93°
2026-05-07 15:42 68.91087 32.49353 2947 ft 150 kts 130°
2026-05-07 15:42 68.90355 32.51418 2537 ft 150 kts 134°
2026-05-07 15:42 68.89574 32.53321 2223 ft 149 kts 136°
2026-05-07 15:43 68.88760 32.55239 2210 ft 155 kts 139°
2026-05-07 15:43 68.87907 32.56993 2200 ft 151 kts 141°
2026-05-07 15:43 68.87044 32.58645 2197 ft 151 kts 143°
2026-05-07 15:43 68.86167 32.60322 2030 ft 159 kts 143°
2026-05-07 15:44 68.85272 32.62006 1828 ft 153 kts 143°
2026-05-07 15:44 68.84393 32.63636 1581 ft 150 kts 144°
2026-05-07 15:44 68.83534 32.65221 1360 ft 148 kts 158°
2026-05-07 15:44 68.82556 32.64998 1145 ft 145 kts 191°
2026-05-07 15:45 68.81628 32.65837 1134 ft 152 kts 129°
2026-05-07 15:45 68.81271 32.68558 805 ft 150 kts 101°
2026-05-07 15:45 68.80726 32.70774 642 ft 144 kts 155°
2026-05-07 15:45 68.79852 32.72117 507 ft 145 kts 141°
2026-05-07 15:46 68.78171 32.75218 319 ft 151 kts 145°
2026-05-07 15:46 68.77255 32.76854 1045 ft 170 kts 147°
2026-05-07 15:46 68.76176 32.78714 1768 ft 195 kts 145°
2026-05-07 15:47 68.75012 32.80817 2288 ft 204 kts 145°
2026-05-07 15:47 68.73817 32.82948 2677 ft 200 kts 146°
2026-05-07 15:47 68.72652 32.84947 3444 ft 204 kts 146°
2026-05-07 15:47 68.71417 32.87108 3653 ft 215 kts 145°
2026-05-07 15:48 68.70203 32.89331 4060 ft 205 kts 144°
2026-05-07 15:48 68.68977 32.91475 4503 ft 216 kts 158°
2026-05-07 15:48 68.67509 32.91510 5142 ft 215 kts 203°
2026-05-07 15:48 68.66398 32.88922 5817 ft 209 kts 235°
2026-05-07 15:49 68.65591 32.85577 6455 ft 211 kts 239°
2026-05-07 15:49 68.64805 32.82177 7001 ft 212 kts 239°
2026-05-07 15:49 68.64002 32.78764 7032 ft 213 kts 238°
2026-05-07 15:49 68.63333 32.75187 7033 ft 210 kts 259°
2026-05-07 15:50 68.63406 32.71259 7046 ft 209 kts 289°
2026-05-07 15:50 68.64207 32.67968 7066 ft 211 kts 317°
2026-05-07 15:50 68.65385 32.65540 7055 ft 214 kts 324°
2026-05-07 15:50 68.66636 32.63263 7050 ft 215 kts 325°
2026-05-07 15:51 68.67873 32.61036 7039 ft 211 kts 325°
2026-05-07 15:51 68.69098 32.58819 7003 ft 210 kts 325°
2026-05-07 15:51 68.70296 32.56638 6847 ft 200 kts 325°
2026-05-07 15:51 68.71419 32.54583 6692 ft 188 kts 325°
2026-05-07 15:52 68.72479 32.52634 6527 ft 180 kts 325°
2026-05-07 15:52 68.73517 32.50719 6342 ft 179 kts 325°
2026-05-07 15:52 68.74548 32.48813 6158 ft 178 kts 325°
2026-05-07 15:52 68.75573 32.46912 5981 ft 177 kts 326°
2026-05-07 15:53 68.76597 32.45008 5774 ft 177 kts 326°
2026-05-07 15:53 68.77618 32.43108 5596 ft 177 kts 326°
2026-05-07 15:53 68.78638 32.41209 5401 ft 177 kts 326°
2026-05-07 15:53 68.79655 32.39311 5207 ft 176 kts 327°
2026-05-07 15:54 68.80654 32.37445 5104 ft 171 kts 327°
2026-05-07 15:54 68.81644 32.35595 4920 ft 172 kts 327°
2026-05-07 15:54 68.82640 32.33731 4750 ft 173 kts 327°
2026-05-07 15:54 68.83636 32.31863 4564 ft 173 kts 327°
2026-05-07 15:55 68.84632 32.29995 4452 ft 171 kts 327°
2026-05-07 15:55 68.85612 32.28157 4361 ft 171 kts 328°
2026-05-07 15:55 68.86734 32.27189 4214 ft 174 kts
2026-05-07 15:55 68.87759 32.28719 4050 ft 173 kts 51°
2026-05-07 15:56 68.88417 32.31448 3871 ft 168 kts 55°
2026-05-07 15:56 68.89058 32.34086 3790 ft 164 kts 55°
2026-05-07 15:56 68.89696 32.36719 3726 ft 165 kts 55°
2026-05-07 15:56 68.90335 32.39365 3635 ft 165 kts 55°
2026-05-07 15:57 68.90968 32.41988 3456 ft 161 kts 55°
2026-05-07 15:57 68.91476 32.44648 3253 ft 153 kts 77°
2026-05-07 15:57 68.91486 32.47573 3110 ft 156 kts 103°
2026-05-07 15:57 68.90852 32.49947 2952 ft 152 kts 133°
2026-05-07 15:58 68.90105 32.51981 2650 ft 149 kts 134°
2026-05-07 15:58 68.89325 32.53865 2264 ft 148 kts 135°
2026-05-07 15:58 68.88523 32.55717 2218 ft 152 kts 139°
2026-05-07 15:58 68.87674 32.57440 2200 ft 150 kts 142°
2026-05-07 15:59 68.86819 32.59101 2160 ft 152 kts 142°
2026-05-07 15:59 68.85934 32.60785 1956 ft 155 kts 143°
2026-05-07 15:59 68.85053 32.62412 1757 ft 150 kts 143°
2026-05-07 15:59 68.84193 32.64007 1536 ft 147 kts 143°
2026-05-07 16:00 68.83342 32.65587 1311 ft 147 kts 143°
2026-05-07 16:00 68.82495 32.67158 1080 ft 147 kts 145°
2026-05-07 16:00 68.81642 32.68717 887 ft 147 kts 144°
2026-05-07 16:00 68.80790 32.70303 662 ft 147 kts 143°
2026-05-07 16:01 68.79967 32.71905 484 ft 143 kts 146°
2026-05-07 16:01 68.79133 32.73432 300 ft 145 kts 146°
2026-05-07 16:01 68.78297 32.74980 408 ft 157 kts 146°
2026-05-07 16:01 68.77316 32.76739 1132 ft 187 kts 146°
2026-05-07 16:02 68.76164 32.78613 2133 ft 195 kts 148°
2026-05-07 16:02 68.75035 32.80665 2848 ft 193 kts 138°
2026-05-07 16:02 68.73929 32.82835 3287 ft 198 kts 151°
2026-05-07 16:02 68.72653 32.84371 3673 ft 206 kts 149°
2026-05-07 16:03 68.71481 32.86779 3735 ft 211 kts 139°
2026-05-07 16:03 68.70319 32.89170 4138 ft 207 kts 144°
2026-05-07 16:03 68.69065 32.91233 4506 ft 215 kts 156°
2026-05-07 16:03 68.67572 32.91773 4542 ft 222 kts 192°
2026-05-07 16:04 68.66306 32.89643 4529 ft 215 kts 236°
2026-05-07 16:04 68.65740 32.85956 4549 ft 210 kts 251°
2026-05-07 16:04 68.65257 32.82119 4482 ft 214 kts 250°
2026-05-07 16:04 68.64520 32.78738 4870 ft 207 kts 233°
2026-05-07 16:05 68.63629 32.75619 5387 ft 202 kts 234°
2026-05-07 16:05 68.63051 32.71985 5287 ft 214 kts 272°
2026-05-07 16:05 68.63563 32.68383 5465 ft 204 kts 317°
2026-05-07 16:05 68.64727 32.66280 5928 ft 205 kts 328°
2026-05-07 16:06 68.65958 32.64212 6253 ft 212 kts 327°
2026-05-07 16:06 68.67221 32.62042 6109 ft 214 kts 327°
2026-05-07 16:06 68.68475 32.59841 5834 ft 213 kts 327°
2026-05-07 16:06 68.69680 32.57691 5848 ft 199 kts 326°
2026-05-07 16:07 68.70833 32.55611 5890 ft 206 kts 326°
2026-05-07 16:07 68.72048 32.53399 5900 ft 210 kts 326°
2026-05-07 16:07 68.73257 32.51182 5882 ft 207 kts 326°
2026-05-07 16:07 68.74447 32.48993 5880 ft 205 kts 326°
2026-05-07 16:08 68.75610 32.46840 5886 ft 203 kts 326°
2026-05-07 16:08 68.76780 32.44666 5885 ft 202 kts 326°
2026-05-07 16:08 68.77963 32.42464 5888 ft 202 kts 326°
2026-05-07 16:08 68.79114 32.40321 5884 ft 202 kts 326°
2026-05-07 16:09 68.80287 32.38132 5780 ft 208 kts 326°
2026-05-07 16:09 68.81498 32.35868 5511 ft 211 kts 326°
2026-05-07 16:09 68.82711 32.33596 5237 ft 209 kts 326°
2026-05-07 16:09 68.83898 32.31370 4962 ft 204 kts 326°
2026-05-07 16:10 68.85064 32.29189 4709 ft 201 kts 328°
2026-05-07 16:10 68.86369 32.28058 4402 ft 199 kts
2026-05-07 16:10 68.87660 32.29243 4152 ft 198 kts 34°
2026-05-07 16:10 68.88600 32.32024 3901 ft 199 kts 53°
2026-05-07 16:11 68.89381 32.35212 3670 ft 197 kts 55°
2026-05-07 16:11 68.90100 32.38234 3561 ft 179 kts 55°
2026-05-07 16:11 68.90738 32.41058 3422 ft 167 kts 64°
2026-05-07 16:11 68.90987 32.44081 3234 ft 162 kts 82°
2026-05-07 16:12 68.90930 32.47386 3006 ft 179 kts 100°
2026-05-07 16:12 68.90472 32.50634 2728 ft 184 kts 121°
2026-05-07 16:12 68.89593 32.53211 2505 ft 183 kts 137°
2026-05-07 16:12 68.88629 32.55483 2400 ft 179 kts 139°
2026-05-07 16:13 68.87675 32.57448 2268 ft 162 kts 142°
2026-05-07 16:13 68.86795 32.59118 2206 ft 152 kts 142°
2026-05-07 16:13 68.85907 32.60821 1984 ft 155 kts 143°
2026-05-07 16:13 68.85023 32.62472 1788 ft 153 kts 144°
2026-05-07 16:14 68.84145 32.64099 1563 ft 151 kts 143°
2026-05-07 16:14 68.83278 32.65706 1331 ft 149 kts 144°
2026-05-07 16:14 68.82416 32.67289 1084 ft 150 kts 145°
2026-05-07 16:14 68.81549 32.68898 862 ft 150 kts 144°
2026-05-07 16:15 68.80681 32.70508 631 ft 149 kts 143°
2026-05-07 16:15 68.79826 32.72143 458 ft 151 kts 149°
2026-05-07 16:15 68.78952 32.73767 280 ft 150 kts 146°
2026-05-07 16:15 68.78180 32.75190 270 ft 113 kts 146°
2026-05-07 16:16 68.77650 32.76167 272 ft 70 kts 146°
2026-05-07 16:16 68.77372 32.76678 272 ft 23 kts 146°
2026-05-07 16:16 68.77268 32.76886 274 ft 8 kts 172°
2026-05-07 16:16 68.77251 32.76802 274 ft 6 kts 285°
2026-05-07 16:17 68.77284 32.76764 274 ft 6 kts 19°
2026-05-07 16:17 68.77325 32.76758 273 ft 6 kts 339°
2026-05-07 16:17 68.77368 32.76687 274 ft 12 kts 326°
2026-05-07 16:17 68.77455 32.76527 273 ft 17 kts 326°
2026-05-07 16:18 68.77570 32.76315 273 ft 22 kts 326°
2026-05-07 16:18 68.77707 32.76063 270 ft 21 kts 326°
2026-05-07 16:18 68.77825 32.75842 271 ft 20 kts 325°
2026-05-07 16:18 68.77941 32.75635 271 ft 20 kts 326°
2026-05-07 16:19 68.78052 32.75430 269 ft 19 kts 327°
2026-05-07 16:19 68.78159 32.75231 269 ft 18 kts 326°
2026-05-07 16:19 68.78266 32.75065 271 ft 18 kts
2026-05-07 16:19 68.78350 32.75292 270 ft 13 kts 55°
2026-05-07 16:20 68.78383 32.75434 270 ft 9 kts 64°
2026-05-07 16:20 68.78368 32.75547 272 ft 5 kts 138°
2026-05-07 16:20 68.78356 32.75570 270 ft 0 kts 145°